CDT,Max TemperatureF,Mean TemperatureF,Min TemperatureF,Max Dew PointF,MeanDew PointF,Min DewpointF,Max Humidity, Mean Humidity, Min Humidity, Max Sea Level PressureIn, Mean Sea Level PressureIn, Min Sea Level PressureIn, Max VisibilityMiles, Mean VisibilityMiles, Min VisibilityMiles, Max Wind SpeedMPH, Mean Wind SpeedMPH, Max Gust SpeedMPH,PrecipitationIn, CloudCover, Events, WindDirDegrees
2013-10-1,81,74,67,70,68,66,100,81,62,30.06,30.00,29.93,10,6,0,12,5,17,0.00,5,Fog,156
2013-10-2,78,70,62,70,66,62,100,87,74,30.10,30.05,29.98,10,5,0,14,5,17,0.00,6,Fog,168
2013-10-3,79,72,65,70,68,64,100,87,74,30.04,29.98,29.90,10,8,2,13,7,17,0.02,5,Rain,168
2013-10-4,84,76,67,70,68,66,100,79,58,30.02,29.96,29.91,10,8,2,17,8,23,0.00,3,,173
2013-10-5,75,63,50,70,63,48,100,91,82,30.05,29.96,29.88,10,8,1,18,6,23,1.03,7,Rain-Thunderstorm,256
2013-10-6,62,53,44,48,43,39,100,73,46,29.99,29.94,29.91,10,10,10,18,7,26,0.00,2,,261
2013-10-7,69,57,45,49,45,42,93,66,39,30.17,30.09,29.97,10,10,5,13,5,17,0.00,3,,330
2013-10-8,69,56,43,49,45,42,93,67,40,30.20,30.15,30.12,10,10,10,14,3,17,0.00,0,,107
2013-10-9,73,57,41,54,48,39,96,72,47,30.17,30.12,30.09,10,10,10,10,1,14,0.00,0,,151
2013-10-10,74,61,48,59,53,46,100,75,49,30.15,30.09,30.00,10,9,4,12,3,,0.00,1,,162
2013-10-11,75,63,50,61,56,50,100,77,54,30.05,30.00,29.93,10,6,0,17,6,23,0.00,2,Fog,173
2013-10-12,78,67,55,62,58,49,97,76,54,30.19,30.05,29.94,10,8,2,15,5,23,0.30,4,Rain-Thunderstorm,338
2013-10-13,73,61,49,49,44,40,83,59,35,30.36,30.29,30.21,10,10,10,18,7,23,0.00,1,,43
2013-10-14,68,59,49,60,51,41,90,71,52,30.29,30.18,30.05,10,10,7,12,6,16,0.02,1,Rain,101
2013-10-15,68,61,53,64,61,48,97,87,77,30.03,29.96,29.92,10,7,2,12,5,18,0.16,8,Rain,247
2013-10-16,64,55,46,49,44,41,82,65,48,30.07,30.03,29.98,10,10,9,13,5,16,0.06,5,Rain,331
2013-10-17,65,54,43,47,43,40,93,68,43,30.04,30.01,29.97,10,10,10,13,3,18,0.01,3,,275
2013-10-18,65,54,42,46,43,40,93,71,48,30.08,30.02,29.97,10,10,8,14,4,17,0.11,3,Rain,309
2013-10-19,57,49,40,43,38,33,93,68,43,30.09,30.04,30.00,10,10,6,14,6,17,0.09,4,Rain,305
2013-10-20,66,53,40,41,39,36,86,62,37,30.04,29.99,29.94,10,10,8,15,7,21,0.00,0,,208
2013-10-21,59,50,41,47,44,38,93,75,57,30.09,30.03,29.97,10,10,7,12,4,17,0.02,5,Rain,286
2013-10-22,65,49,33,42,37,32,96,70,44,30.09,30.00,29.88,10,10,10,17,6,24,0.00,2,,283
2013-10-23,54,44,35,40,34,30,93,74,43,30.18,30.10,30.02,10,10,6,10,5,,0.00,3,,294
2013-10-24,53,43,33,39,30,22,89,61,32,30.43,30.27,30.12,10,10,10,18,7,23,0.00,3,,358
2013-10-25,53,40,26,32,25,20,85,57,28,30.53,30.43,30.27,10,10,10,10,4,14,0.00,0,,168
2013-10-26,65,51,36,50,40,28,83,70,57,30.25,30.15,30.06,10,10,10,15,6,20,0.00,3,,254
2013-10-27,63,48,32,42,35,28,96,66,35,30.13,30.08,30.03,10,10,9,10,3,14,0.00,0,,116
2013-10-28,67,52,36,52,46,35,100,74,48,30.22,30.16,30.06,10,7,0,10,3,14,0.00,2,Fog,205
2013-10-29,65,58,50,62,56,49,100,97,93,30.21,30.14,30.06,10,3,0,13,6,16,0.62,7,Fog-Rain,135
2013-10-30,71,66,61,64,62,61,100,89,78,30.10,30.01,29.87,10,7,0,17,9,23,0.58,7,Fog-Rain,178
2013-10-31,73,60,47,64,59,46,100,77,53,29.84,29.64,29.41,10,8,1,22,10,35,0.49,6,Rain,215